Вернуться в каталог

DELTA 1 DEB

АктивенSSO
NORAD 7133·DEBRIS·🇺🇸 United States

Запущен Nov 6, 1973 с Vandenberg Space Force Base

Loading…

Ближайшие Пролёты (ближайшие 24 часа)

TLE

СвежийSource: Space-Track

Эпоха: Sep 14, 2026, 00:56 UTC

1 07133U 73086CX  26257.03943226  .00000126  00000-0  12354-2 0  9995
2 07133 101.6625 287.9612 0038528 155.3019 233.5231 12.41616259391371

Отслеживайте DELTA 1 DEB в реальном времени с AllMySat

Download on the App Store